New Ulm, MN

5:07 AM CST on December 10, 2019 (GMT -0600)
New Ulm Municipal

Weather History for KULM - October, 2019

Change the Weather History Date:

Tuesday, October 22, 2019

  Actual Average Record
Temperature  
Mean Temperature 40 °F -  
Max Temperature 48 °F 61 °F 80 °F (1967)
Min Temperature 33 °F 37 °F 17 °F (1976)
Degree Days  
Heating Degree Days 24    
Moisture  
Dew Point 33 °F    
Average Humidity 75    
Maximum Humidity 93    
Minimum Humidity 43    
Precipitation  
Precipitation 0.00 in - - ()
Sea Level Pressure  
Sea Level Pressure 29.58 in    
Wind  
Wind Speed 26 mph ()    
Max Wind Speed 37 mph    
Max Gust Speed 47 mph    
Visibility 9.9 miles    
Events Rain    
Averages and records for this station are not official NWS values.
T = Trace of Precipitation, MM = Missing Value Source: Averaged Metar Reports

Daily Weather History Graph

Daily Weather History Graph

Search for Another Location

Airport or City:

Astronomy

Oct. 22, 2019 Rise Set
Actual Time 7:41 AM CDT 6:22 PM CDT
Civil Twilight 7:12 AM CDT 6:52 PM CDT
Nautical Twilight 6:38 AM CDT 7:25 PM CDT
Astronomical Twilight 6:04 AM CDT 7:59 PM CDT
Moon 12:33 AM CDT (10/22) 3:49 PM CDT (10/22)
Length of Visible Light 11h 40m
Length of Day
10h 40m
Last Quarter, 37% of the Moon is Illuminated
Oct 22
Last Quarter
Oct 27
New
Nov 4
First Quarter
Nov 12
Full
Nov 19
Last Quarter

Hourly Weather History & Observations

Time (CDT) Temp. Windchill Dew Point Humidity Pressure Visibility Wind Dir Wind Speed Gust Speed Precip Events Conditions
12:15 AM 42.8 °F 32.1 °F 39.2 °F 87% 29.31 in 10.0 mi NW 31.1 mph 39.1 mph N/A Rain Light Rain
12:35 AM 42.8 °F 32.3 °F 39.2 °F 87% 29.32 in 10.0 mi NW 29.9 mph 40.3 mph N/A Rain Light Rain
12:36 AM 42.8 °F 31.9 °F 39.2 °F 87% 29.32 in 10.0 mi NW 32.2 mph 40.3 mph N/A Rain Light Rain
12:55 AM 42.8 °F 32.1 °F 39.2 °F 87% 29.34 in 7.0 mi NW 31.1 mph 41.4 mph N/A Rain Light Rain
1:15 AM 41.0 °F 29.5 °F 39.2 °F 93% 29.35 in 10.0 mi NW 32.2 mph 44.9 mph N/A Rain Light Rain
1:16 AM 41.0 °F 29.7 °F 39.2 °F 93% 29.34 in 10.0 mi NW 31.1 mph 44.9 mph N/A Rain Light Rain
1:35 AM 41.0 °F 29.5 °F 39.2 °F 93% 29.36 in 10.0 mi NW 32.2 mph 47.2 mph N/A   Light Drizzle
1:55 AM 41.0 °F 29.7 °F 39.2 °F 93% 29.37 in 7.0 mi NW 31.1 mph 42.6 mph N/A   Light Drizzle
1:56 AM 41.0 °F 29.5 °F 39.2 °F 93% 29.37 in 7.0 mi NW 32.2 mph 42.6 mph N/A   Light Drizzle
2:15 AM 41.0 °F 29.7 °F 39.2 °F 93% 29.38 in 10.0 mi NW 31.1 mph 43.7 mph N/A   Light Drizzle
2:35 AM 41.0 °F 30.0 °F 39.2 °F 93% 29.39 in 10.0 mi NW 28.8 mph 42.6 mph N/A   Overcast
2:36 AM 41.0 °F 29.5 °F 39.2 °F 93% 29.39 in 10.0 mi NW 32.2 mph 42.6 mph N/A   Overcast
3:15 AM 41.0 °F 29.3 °F 37.4 °F 87% 29.41 in 10.0 mi NW 33.4 mph 44.9 mph N/A   Overcast
3:35 AM 41.0 °F 29.8 °F 37.4 °F 87% 29.42 in 7.0 mi WNW 29.9 mph 40.3 mph N/A   Drizzle
3:55 AM 41.0 °F 28.8 °F 37.4 °F 87% 29.42 in 10.0 mi NW 36.8 mph 47.2 mph N/A   Light Drizzle
3:56 AM 39.2 °F 26.5 °F 37.4 °F 93% 29.42 in 10.0 mi NW 35.7 mph 47.2 mph N/A   Light Drizzle
4:15 AM 39.2 °F 27.6 °F 37.4 °F 93% 29.44 in 10.0 mi WNW 28.8 mph 41.4 mph N/A   Light Drizzle
4:16 AM 39.2 °F 27.4 °F 37.4 °F 93% 29.44 in 10.0 mi WNW 29.9 mph 41.4 mph N/A   Light Drizzle
4:35 AM 39.2 °F 28.0 °F 37.4 °F 93% 29.45 in 10.0 mi WNW 26.5 mph 39.1 mph N/A   Light Drizzle
4:36 AM 39.2 °F 27.8 °F 37.4 °F 93% 29.45 in 10.0 mi WNW 27.6 mph 39.1 mph N/A   Light Drizzle
4:55 AM 39.2 °F 26.6 °F 37.4 °F 93% 29.46 in 10.0 mi NW 34.5 mph 43.7 mph N/A   Light Drizzle
5:15 AM 39.2 °F 27.6 °F 37.4 °F 93% 29.47 in 10.0 mi WNW 28.8 mph 40.3 mph N/A   Overcast
5:16 AM 39.2 °F 27.6 °F 37.4 °F 93% 29.47 in 10.0 mi WNW 28.8 mph 40.3 mph N/A   Overcast
5:35 AM 39.2 °F 27.8 °F 37.4 °F 93% 29.49 in 10.0 mi WNW 27.6 mph 36.8 mph N/A   Light Drizzle
5:55 AM 39.2 °F 27.4 °F 37.4 °F 93% 29.49 in 10.0 mi WNW 29.9 mph 41.4 mph N/A   Light Drizzle
5:56 AM 39.2 °F 26.6 °F 37.4 °F 93% 29.49 in 10.0 mi WNW 34.5 mph 41.4 mph N/A   Light Drizzle
6:35 AM 39.2 °F 27.6 °F 37.4 °F 93% 29.51 in 10.0 mi WNW 28.8 mph 33.4 mph N/A   Overcast
6:55 AM 39.2 °F 28.5 °F 35.6 °F 87% 29.52 in 10.0 mi WNW 24.2 mph 41.4 mph N/A   Overcast
6:56 AM 39.2 °F 28.0 °F 35.6 °F 87% 29.52 in 10.0 mi WNW 26.5 mph 41.4 mph N/A   Overcast
7:15 AM 39.2 °F 26.8 °F 35.6 °F 87% 29.52 in 10.0 mi WNW 33.4 mph 42.6 mph N/A   Overcast
7:35 AM 39.2 °F 27.8 °F 35.6 °F 87% 29.53 in 10.0 mi WNW 27.6 mph 39.1 mph N/A   Overcast
7:36 AM 39.2 °F 27.8 °F 35.6 °F 87% 29.53 in 10.0 mi WNW 27.6 mph 39.1 mph N/A   Overcast
7:55 AM 39.2 °F 28.3 °F 35.6 °F 87% 29.54 in 10.0 mi WNW 25.3 mph 36.8 mph N/A   Overcast
7:56 AM 39.2 °F 28.0 °F 35.6 °F 87% 29.54 in 10.0 mi WNW 26.5 mph 36.8 mph N/A   Overcast
8:15 AM 39.2 °F 27.8 °F 35.6 °F 87% 29.55 in 10.0 mi WNW 27.6 mph 34.5 mph N/A   Overcast
8:16 AM 39.2 °F 27.8 °F 35.6 °F 87% 29.55 in 10.0 mi WNW 27.6 mph 33.4 mph N/A   Overcast
8:35 AM 37.4 °F 25.4 °F 33.8 °F 87% 29.55 in 10.0 mi WNW 27.6 mph 39.1 mph N/A   Overcast
8:55 AM 37.4 °F 25.4 °F 33.8 °F 87% 29.56 in 10.0 mi WNW 27.6 mph 33.4 mph N/A   Overcast
8:56 AM 37.4 °F 25.2 °F 33.8 °F 87% 29.56 in 10.0 mi WNW 28.8 mph 33.4 mph N/A   Overcast
9:15 AM 37.4 °F 26.1 °F 33.8 °F 87% 29.57 in 10.0 mi WNW 24.2 mph 35.7 mph N/A   Overcast
9:35 AM 39.2 °F 28.7 °F 33.8 °F 81% 29.58 in 10.0 mi WNW 23.0 mph 33.4 mph N/A   Overcast
9:55 AM 39.2 °F 28.7 °F 33.8 °F 81% 29.59 in 10.0 mi WNW 23.0 mph 34.5 mph N/A   Overcast
9:56 AM 39.2 °F 28.7 °F 33.8 °F 81% 29.58 in 10.0 mi WNW 23.0 mph 34.5 mph N/A   Overcast
10:15 AM 39.2 °F 28.5 °F 33.8 °F 81% 29.59 in 10.0 mi WNW 24.2 mph 31.1 mph N/A   Overcast
10:16 AM 39.2 °F 27.8 °F 33.8 °F 81% 29.59 in 10.0 mi WNW 27.6 mph 33.4 mph N/A   Overcast
10:35 AM 39.2 °F 27.6 °F 33.8 °F 81% 29.59 in 10.0 mi WNW 28.8 mph 34.5 mph N/A   Overcast
10:55 AM 39.2 °F 28.3 °F 33.8 °F 81% 29.59 in 10.0 mi WNW 25.3 mph 40.3 mph N/A   Overcast
11:15 AM 39.2 °F 27.2 °F 32.0 °F 75% 29.60 in 10.0 mi WNW 31.1 mph 40.3 mph N/A   Overcast
11:35 AM 41.0 °F 29.8 °F 33.8 °F 76% 29.61 in 10.0 mi WNW 29.9 mph 33.4 mph N/A   Overcast
11:55 AM 42.8 °F 33.1 °F 33.8 °F 70% 29.61 in 10.0 mi WNW 25.3 mph 34.5 mph N/A   Overcast
12:15 PM 42.8 °F 33.3 °F 32.0 °F 66% 29.62 in 10.0 mi WNW 24.2 mph 34.5 mph N/A   Overcast
12:16 PM 42.8 °F 33.5 °F 32.0 °F 66% 29.62 in 10.0 mi WNW 23.0 mph 34.5 mph N/A   Overcast
12:35 PM 44.6 °F 35.1 °F 33.8 °F 66% 29.61 in 10.0 mi WNW 27.6 mph 32.2 mph N/A   Mostly Cloudy
12:55 PM 44.6 °F 35.5 °F 33.8 °F 66% 29.61 in 10.0 mi WNW 25.3 mph 35.7 mph N/A   Mostly Cloudy
12:56 PM 44.6 °F 35.1 °F 33.8 °F 66% 29.61 in 10.0 mi WNW 27.6 mph 35.7 mph N/A   Mostly Cloudy
1:15 PM 44.6 °F 34.7 °F 33.8 °F 66% 29.61 in 10.0 mi WNW 29.9 mph 35.7 mph N/A   Scattered Clouds
1:35 PM 46.4 °F 37.9 °F 33.8 °F 62% 29.62 in 10.0 mi WNW 25.3 mph 39.1 mph N/A   Scattered Clouds
1:55 PM 46.4 °F 37.0 °F 33.8 °F 62% 29.61 in 10.0 mi WNW 31.1 mph 41.4 mph N/A   Scattered Clouds
2:15 PM 48.2 °F - 30.2 °F 50% 29.62 in 10.0 mi WNW 28.8 mph 41.4 mph N/A   Scattered Clouds
2:35 PM 48.2 °F - 28.4 °F 46% 29.62 in 10.0 mi WNW 28.8 mph 40.3 mph N/A   Scattered Clouds
2:55 PM 48.2 °F - 30.2 °F 50% 29.62 in 10.0 mi WNW 34.5 mph 42.6 mph N/A   Clear
3:15 PM 48.2 °F - 26.6 °F 43% 29.63 in 10.0 mi WNW 33.4 mph 41.4 mph N/A   Clear
3:35 PM 48.2 °F - 28.4 °F 46% 29.64 in 10.0 mi WNW 28.8 mph 36.8 mph N/A   Clear
3:55 PM 48.2 °F - 28.4 °F 46% 29.65 in 10.0 mi WNW 25.3 mph 38.0 mph N/A   Clear
3:56 PM 48.2 °F - 28.4 °F 46% 29.65 in 10.0 mi WNW 24.2 mph 38.0 mph N/A   Clear
4:15 PM 48.2 °F - 28.4 °F 46% 29.66 in 10.0 mi WNW 31.1 mph 36.8 mph N/A   Clear
4:16 PM 48.2 °F - 28.4 °F 46% 29.66 in 10.0 mi WNW 32.2 mph 36.8 mph N/A   Clear
4:35 PM 48.2 °F - 28.4 °F 46% 29.67 in 10.0 mi WNW 29.9 mph 36.8 mph N/A   Clear
4:55 PM 46.4 °F 37.0 °F 26.6 °F 46% 29.68 in 10.0 mi WNW 31.1 mph 38.0 mph N/A   Clear
4:56 PM 46.4 °F 37.5 °F 26.6 °F 46% 29.68 in 10.0 mi WNW 27.6 mph 38.0 mph N/A   Clear
5:15 PM 46.4 °F 37.5 °F 26.6 °F 46% 29.68 in 10.0 mi WNW 27.6 mph 34.5 mph N/A   Clear
5:35 PM 46.4 °F 38.7 °F 28.4 °F 50% 29.69 in 10.0 mi WNW 20.7 mph 29.9 mph N/A   Clear
5:55 PM 46.4 °F 39.2 °F 28.4 °F 50% 29.70 in 10.0 mi WNW 18.4 mph 31.1 mph N/A   Clear
6:15 PM 44.6 °F 37.2 °F 28.4 °F 53% 29.71 in 10.0 mi WNW 17.3 mph 24.2 mph N/A   Clear
6:16 PM 44.6 °F 37.4 °F 28.4 °F 53% 29.71 in 10.0 mi WNW 16.1 mph 24.2 mph N/A   Clear
6:35 PM 44.6 °F 37.4 °F 28.4 °F 53% 29.72 in 10.0 mi WNW 16.1 mph 24.2 mph N/A   Clear
6:55 PM 42.8 °F 35.1 °F 28.4 °F 57% 29.72 in 10.0 mi West 16.1 mph 20.7 mph N/A   Clear
7:15 PM 42.8 °F 34.8 °F 28.4 °F 57% 29.73 in 10.0 mi WNW 17.3 mph 23.0 mph N/A   Clear
7:16 PM 42.8 °F 35.1 °F 28.4 °F 57% 29.73 in 10.0 mi WNW 16.1 mph 23.0 mph N/A   Clear
7:35 PM 41.0 °F 33.9 °F 28.4 °F 61% 29.74 in 10.0 mi WNW 12.7 mph - N/A   Clear
7:55 PM 39.2 °F 32.5 °F 28.4 °F 65% 29.75 in 10.0 mi WNW 10.4 mph - N/A   Clear
8:15 PM 39.2 °F 32.5 °F 28.4 °F 65% 29.75 in 10.0 mi West 10.4 mph - N/A   Clear
8:35 PM 37.4 °F 30.8 °F 28.4 °F 70% 29.75 in 10.0 mi West 9.2 mph - N/A   Clear
8:36 PM 37.4 °F 30.8 °F 28.4 °F 70% 29.75 in 10.0 mi West 9.2 mph - N/A   Clear
8:55 PM 37.4 °F 30.8 °F 28.4 °F 70% 29.76 in 10.0 mi West 9.2 mph - N/A   Clear
9:15 PM 37.4 °F 30.8 °F 28.4 °F 70% 29.76 in 10.0 mi West 9.2 mph - N/A   Clear
9:35 PM 37.4 °F 29.8 °F 28.4 °F 70% 29.76 in 10.0 mi West 11.5 mph - N/A   Clear
9:55 PM 37.4 °F 30.8 °F 28.4 °F 70% 29.76 in 10.0 mi West 9.2 mph - N/A   Clear
10:15 PM 37.4 °F 31.4 °F 28.4 °F 70% 29.76 in 10.0 mi West 8.1 mph - N/A   Clear
10:35 PM 33.8 °F 27.7 °F 28.4 °F 81% 29.77 in 10.0 mi West 6.9 mph - N/A   Clear
10:55 PM 33.8 °F 27.0 °F 28.4 °F 81% 29.77 in 10.0 mi West 8.1 mph - N/A   Clear
11:15 PM 33.8 °F 27.0 °F 28.4 °F 81% 29.77 in 10.0 mi West 8.1 mph - N/A   Clear
11:16 PM 33.8 °F 27.0 °F 28.4 °F 81% 29.77 in 10.0 mi West 8.1 mph - N/A   Clear
11:35 PM 33.8 °F 26.4 °F 28.4 °F 81% 29.76 in 10.0 mi West 9.2 mph - N/A   Clear
11:55 PM 33.8 °F 26.4 °F 28.4 °F 81% 29.75 in 10.0 mi West 9.2 mph - N/A   Clear